Redding, CA

4:26 AM PST on January 19, 2017 (GMT -0800)
Redding Municipal

Weather History for KRDD - May, 2013

Change the Weather History Date:

Wednesday, May 8, 2013

  Actual Average Record
Temperature  
Mean Temperature 70 °F -  
Max Temperature 78 °F 78 °F 96 °F (2001)
Min Temperature 61 °F 52 °F 40 °F (2003)
Degree Days  
Heating Degree Days 0    
Cooling Degree Days 5    
Growing Degree Days 20 (Base 50)    
Moisture  
Dew Point 54 °F    
Average Humidity 62    
Maximum Humidity 84    
Minimum Humidity 40    
Precipitation  
Precipitation 0.00 in 0.05 in 1.27 in (2005)
Month to date precipitation 0.18 0.49  
Year to date precipitation 7.04 18.81  
Since 1 July precipitation 26.20  
Sea Level Pressure  
Sea Level Pressure 30.02 in    
Wind  
Wind Speed 2 mph (WSW)    
Max Wind Speed 10 mph    
Max Gust Speed 13 mph    
Visibility 10 miles    
Events      
T = Trace of Precipitation, MM = Missing Value Source: NWS Daily Summary

Daily Weather History Graph

Daily Weather History Graph

Search for Another Location

Airport or City:

Trip Planner

Search our weather history database for the weather conditions in past years. The results will help you decide how hot, cold, wet, or windy it might be!

Date:

Astronomy

May. 08, 2013 Rise Set
Actual Time 5:59 AM PDT 8:12 PM PDT
Civil Twilight 5:29 AM PDT 8:42 PM PDT
Nautical Twilight 4:51 AM PDT 9:20 PM PDT
Astronomical Twilight 4:11 AM PDT 10:01 PM PDT
Moon 5:10 AM PDT (5/8) 7:15 PM PDT (5/8)
Length of Visible Light 15h 13m
Length of Day
14h 12m
Waning Crescent, 1% of the Moon is Illuminated
May 8
Waning Crescent
May 9
New
May 17
First Quarter
May 24
Full
May 31
Last Quarter

Hourly Weather History & Observations

Time (PDT) Temp. Dew Point Humidity Pressure Visibility Wind Dir Wind Speed Gust Speed Precip Events Conditions
12:53 AM 63.0 °F 54.0 °F 72% 29.99 in 10.0 mi Calm Calm - N/A   Overcast
1:53 AM 63.0 °F 55.0 °F 75% 29.98 in 10.0 mi Calm Calm - N/A   Overcast
2:53 AM 62.1 °F 55.0 °F 78% 29.98 in 10.0 mi Calm Calm - N/A   Overcast
3:53 AM 62.1 °F 55.0 °F 78% 29.99 in 10.0 mi Calm Calm - N/A   Overcast
4:53 AM 61.0 °F 55.0 °F 81% 29.99 in 10.0 mi Calm Calm - N/A   Overcast
5:53 AM 61.0 °F 55.0 °F 81% 30.00 in 10.0 mi Calm Calm - N/A   Overcast
6:53 AM 62.1 °F 55.0 °F 78% 30.02 in 10.0 mi Calm Calm - N/A   Overcast
7:53 AM 63.0 °F 55.9 °F 78% 30.03 in 10.0 mi Calm Calm - N/A   Overcast
8:53 AM 64.0 °F 55.9 °F 75% 30.05 in 10.0 mi Calm Calm - N/A   Overcast
9:53 AM 66.0 °F 55.0 °F 68% 30.06 in 10.0 mi WSW 4.6 mph - N/A   Overcast
10:53 AM 68.0 °F 53.1 °F 59% 30.06 in 10.0 mi Calm Calm - N/A   Overcast
11:53 AM 68.0 °F 53.1 °F 59% 30.07 in 10.0 mi SSE 8.1 mph - N/A   Overcast
12:53 PM 70.0 °F 53.1 °F 55% 30.05 in 10.0 mi South 9.2 mph - N/A   Overcast
1:53 PM 71.1 °F 52.0 °F 51% 30.04 in 10.0 mi Variable 4.6 mph - N/A   Scattered Clouds
2:53 PM 73.9 °F 52.0 °F 46% 30.02 in 10.0 mi SW 6.9 mph - N/A   Mostly Cloudy
3:53 PM 77.0 °F 52.0 °F 42% 29.99 in 10.0 mi Variable 6.9 mph - N/A   Clear
4:53 PM 75.9 °F 51.1 °F 42% 29.98 in 10.0 mi SE 5.8 mph - N/A   Clear
5:53 PM 75.9 °F 50.0 °F 40% 29.98 in 10.0 mi Calm Calm - N/A   Clear
6:53 PM 75.0 °F 51.1 °F 43% 29.98 in 10.0 mi Calm Calm - N/A   Clear
7:53 PM 72.0 °F 53.1 °F 51% 30.01 in 10.0 mi SE 5.8 mph - 0.00 in   Overcast
8:53 PM 68.0 °F 54.0 °F 61% 30.04 in 10.0 mi North 9.2 mph - 0.00 in   Overcast
9:53 PM 66.0 °F 54.0 °F 65% 30.06 in 10.0 mi North 3.5 mph - N/A   Partly Cloudy
10:53 PM 63.0 °F 54.0 °F 72% 30.06 in 10.0 mi NW 3.5 mph - N/A   Scattered Clouds
11:53 PM 63.0 °F 55.0 °F 75% 30.06 in 10.0 mi North 4.6 mph - N/A   Clear